Retour au catalogue

ITASat 1

ITASAT

ActifRadio amateurSSO
NORAD 43786·PAYLOAD·🇧🇷 Brazil

Lancé Dec 3, 2018 depuis Vandenberg Space Force Base

Loading…

Prochains Passages (prochaines 24 heures)

TLE

FraisSource: AMSAT

Époque: Sep 14, 2026, 02:50 UTC

1 43786U 18099AE  26257.11805822  .00005342  00000-0  25051-3 0  9994
2 43786  97.3936 306.8722 0013328  47.6971 312.5391 15.20014418426413

Suivez ITASat 1 en temps réel avec AllMySat

Download on the App Store